Aérodrome :
LOGIN :

S'inscrire | Disclaimer

   EN    FR    IT 

 










Légende :    VFR   VFR Marginal   IFR   IFR Intensif   IFR Très Intensif
Visi : 
Plafond : 
>= 8 km
>= 3000ft
5 à 8 km
1000 à 3000 ft
1500m à 5 km
500 à 1000 ft
800 à 1500m
200 à 500 ft
< 800m
< 200 ft
Symboles :   Orages  Brouillard  Fortes neiges  Fortes précipitations  Vent > 20 kt
SIGMETs :   Divers  Orages  Givrage  Turbulence  Onde Orograph.  Cendres Volcan.







- Altitude de l'aérodrome : 52 ft
- Code IATA : RNN


EKRN - Bornholm Ronne

DERNIER METAR :
  • 200120Z AUTO 25013KT 9999NDV FEW020/// 16/12 Q1015

METARs EXPIRÉS :
  • 200050Z AUTO 24013KT 9999NDV NCD 16/13 Q1015
  • 200020Z AUTO 24012KT 9999NDV NCD 16/14 Q1015
  • 192350Z AUTO 22008KT 180V260 9999NDV FEW068/// BKN087/// BKN120/// 16/14 Q1015
  • 192320Z AUTO 23009KT 190V260 9999NDV FEW040/// SCT140/// 17/13 Q1015
  • 192250Z AUTO 22008KT 190V250 9999NDV NCD 17/13 Q1015

Prévision TAF périmée.
Pas de NOTAMs connus pour ce terrain.



MET'MAP, la Météo Aéronautique d'un coup d'oeil ! - Copyright ORBIFLY Décembre 2007 - Disclaimer

ORBIFLY MET'MAP TEAM :

Programmation & Développement : Alexandra Zaïnal
Conception & Développement : Baudouin d'Aumeries
Co-Programmation & Développement : Marc-Olivier Méhu
Soutien technique & logistique : Manuel Goepfert

Contact : metmap@orbifly.com




SOURCES & CREDITS :

   NOAA